Powrót do katalogu

BDSAGR-1

AktywnyNaukaSSO
NORAD 44879·PAYLOAD·🇨🇳 China
Ta nazwa satelity nie została jeszcze potwierdzona przez oficjalne źródła.

Wystrzelony Dec 20, 2019 z Taiyuan Satellite Launch Center

Loading…

Następne Przeloty (najbliższe 24 godziny)

TLE

ŚwieżeSource: Space-Track

Epoka: Sep 14, 2026, 12:55 UTC

1 44879U 19093A   26257.53886245  .00001702  00000-0  15755-3 0  9993
2 44879  97.7777 340.7351 0012493 111.5096 248.7458 14.95802279365406

Śledź BDSAGR-1 w czasie rzeczywistym z AllMySat

Download on the App Store